Location: Pontbriand
(46.1542°N, 71.2542°W)
Time: 12:50:56
(UTC+00:00)

N. Korean satellite - Visible Passes

Search period start: 01 December 2021 00:00
Search period end: 11 December 2021 00:00
Orbit: 447 x 495 km, 97.3° (Epoch: 01 December)

Date Brightness Start Highest point End Pass type
(mag) Time Alt. Az. Time Alt. Az. Time Alt. Az.
01 Dec 8.7 09:26:23 10° NE 09:29:15 25° E 09:32:06 10° SSE visible
01 Dec 7.7 10:59:45 10° NNW 11:02:20 20° WNW 11:04:54 10° WSW visible
01 Dec 8.2 21:35:24 10° SSW 21:38:45 38° W 21:42:05 10° NNW visible
02 Dec 9.8 08:59:15 10° ENE 09:00:32 12° E 09:01:50 10° ESE visible
02 Dec 6.6 10:30:44 10° N 10:34:00 44° WNW 10:37:13 10° SW visible
03 Dec 6.5 10:02:08 10° NNE 10:05:32 76° E 10:08:54 10° S visible
03 Dec 9.8 22:13:04 10° SW 22:15:07 15° W 22:17:11 10° NW visible
04 Dec 8.3 09:33:53 10° NNE 09:36:57 31° E 09:39:59 10° SSE visible
04 Dec 7.9 11:07:39 10° NNW 11:09:55 17° WNW 11:12:11 10° WSW visible
04 Dec 8.7 21:43:15 10° SSW 21:46:26 31° W 21:49:35 10° NNW visible
05 Dec 9.6 09:06:17 10° ENE 09:08:14 14° E 09:10:10 10° SE visible
05 Dec 6.9 10:38:27 10° N 10:41:34 35° WNW 10:44:41 10° SW visible
06 Dec 6.2 10:09:42 10° N 10:13:07 85° WNW 10:16:30 10° SSW visible
06 Dec 10.0 22:21:23 10° WSW 22:22:46 12° W 22:24:09 10° WNW visible
07 Dec 7.8 09:41:19 10° NNE 09:44:31 39° E 09:47:42 10° S visible
07 Dec 8.1 11:15:32 10° NNW 11:17:24 14° WNW 11:19:15 10° W visible
07 Dec 9.1 21:51:04 10° SSW 21:54:00 25° W 21:56:56 10° NW visible
08 Dec 9.3 09:13:26 10° NE 09:15:48 18° E 09:18:10 10° SE visible
08 Dec 7.2 10:46:04 10° N 10:49:03 28° WNW 10:52:00 10° SW visible
09 Dec 6.2 10:17:12 10° N 10:20:34 67° WNW 10:23:56 10° SSW visible
10 Dec 7.3 09:48:40 10° NNE 09:51:59 49° E 09:55:16 10° S visible
10 Dec 8.6 11:26:02 10° W 11:26:02 10° W 11:26:03 10° W visible
10 Dec 9.4 21:58:49 10° SW 22:01:29 20° W 22:04:07 10° NW visible
